Airfield :
LOGIN :

Register | Disclaimer

   EN    FR    IT 

 










Legend :    VFR   Marginal VFR   IFR   Intensive IFR   Very Intensive IFR
Visi :
Ceiling :
>= 8 km
>= 3000ft
5 to 8 km
1000 to 3000 ft
1500m to 5 km
500 to 1000 ft
800 to 1500m
200 to 500 ft
< 800m
< 200 ft
Symbols :   Thunderstorms  Fog  Heavy snow  Heavy precipitations  Wind > 20 kt
SIGMETs :     Misc.  Thunderstorms  Icing  Turbulence  Mountain Waves  Volcanic Ashes






- Airport Elevation : 1674 ft
- IATA code : BRN


LSZB - Bern Belp

CURRENT METAR :
  • 260150Z AUTO 11005KT 9999 BKN050 16/15 Q1013

EXPIRED METARs :
  • 260120Z AUTO VRB01KT 9999 FEW032TCU SCT050 BKN075 16/15 Q1014 RERA
  • 260050Z AUTO VRB03KT 9999 R14/1400D RA FEW017 SCT027 BKN031TCU 17/15 Q1014
  • 260020Z AUTO VRB03KT 9999 VCTS SCT025 SCT028 BKN032CB 17/15 Q1013
  • 252350Z AUTO 35007KT 300V040 9999 TS FEW016 SCT018 BKN020 SCT///CB 17/16 Q1013
  • 252320Z AUTO VRB01KT 9999 VCTS FEW095 SCT100 SCT///CB 15/15 Q1013

Expired Forecast.
ATIS : +41 22 417 40 76



MET'MAP, your aeronautical weather chart ! - Copyright ORBIFLY December 2007 - Disclaimer

ORBIFLY MET'MAP TEAM :

Programming & Development : Alexandra Zaïnal
Concept & original design : Baudouin d'Aumeries
Assistance for programming : Marc-Olivier Méhu
Technical & hardware support : Manuel Goepfert

Contact : metmap@orbifly.com




SOURCES & CREDITS :

   NOAA